Location: Nairn
(57.5833°N, 3.8667°W)
Time: 03:05:53
(UTC+00:00)

Transit 2A - Pass Details

Date: 04 December 2020
Orbit: 598 x 960 km, 66.7° (Epoch: 20 January)

Event Time Altitude Azimuth Distance (km) Brightness Sun altitude
Rises 19:26:54 0° 265° (W) 3,564 10.6 -29.5°
Reaches altitude 10° 19:29:42 10° 273° (W) 2,581 9.6 -29.9°
Maximum altitude 19:35:16 39° 341° (NNW) 1,265 7.2 -30.6°
Enters shadow 19:35:31 38° 347° (NNW) 1,265 7.1 -30.7°
